Flag for South Korea Weather past 2 weeks in Seoul, South Korea

Now
18 °F

Clear.


Feels Like: 11 °F
Forecast: 13 / 32 °F
Wind: 5 mph from Northwest

Location: Seoul / Kimp'O International Airport

Current Time: Jan 28, 2015 at 3:04:12 AM

Latest Report: Jan 28, 2015 at 2:00 AM


Visibility: 10 mi

Pressure: 30.36 "Hg

Humidity: 41%

Dew point: -2 °F

Location of SeoulLocation

Historic Weather in Seoul — Graph

°F

Seoul temperature yesterday

Maximum temperature yesterday: 34 °F (at 12:00 AM)
Minimum temperature yesterday: 19 °F (at 10:00 PM)
Average temperature yesterday: 26 °F

Past Weeks' High & Low Weather Summary

 TemperatureHumidityPressure
High46 °F (Jan 15, 3:00 PM)87% (Jan 16, 4:00 AM)30.63 "Hg (Jan 16, 4:00 AM)
Low16 °F (Jan 13, 3:00 AM)13% (Jan 13, 3:00 PM)30.01 "Hg (Jan 18, 6:55 PM)
Average32 °F57%30.24 "Hg
* Reported Jan 13 2:00 AM — Jan 28 2:00 AM, Seoul, Weather by CustomWeather, © 2014

Note: Actual official high and low records may vary slightly from our data, if they occured in-between our weather recording intervals... More about our weather records

Advertising

Seoul weather history for previous 24 hours

 ConditionsComfort  
Time TempWeatherWind HumidityBarometerVisibility
2:00 AM
Jan 28
18 °FClear.5 mph41%30.36 "Hg10 mi
1:00 AM18 °FClear.6 mph41%30.36 "Hg10 mi
12:00 AM18 °FClear.10 mph45%30.36 "Hg10 mi
11:00 PM
Jan 27
19 °FClear.8 mph42%30.36 "Hg10 mi
10:00 PM19 °FClear.13 mph45%30.33 "Hg10 mi
9:00 PM21 °FClear.12 mph45%30.33 "Hg10 mi
8:00 PM23 °FClear.13 mph42%30.30 "Hg10 mi
7:00 PM23 °FClear.12 mph42%30.30 "Hg10 mi
6:00 PM23 °FClear.8 mph39%30.27 "Hg10 mi
5:00 PM27 °FSunny.12 mph33%30.27 "Hg10 mi
4:00 PM28 °FSunny.12 mph31%30.27 "Hg10 mi
3:00 PM28 °FSunny.12 mph29%30.27 "Hg10 mi
2:00 PM28 °FSunny.12 mph31%30.27 "Hg10 mi
1:00 PM28 °FSunny.13 mph34%30.27 "Hg10 mi
12:00 PM27 °FSunny.9 mph33%30.30 "Hg10 mi
11:00 AM25 °FSunny.10 mph39%30.30 "Hg10 mi
10:00 AM25 °FSunny.13 mph42%30.30 "Hg10 mi
9:00 AM23 °FSunny.13 mph50%30.27 "Hg10 mi
8:00 AM21 °FSunny.10 mph54%30.27 "Hg10 mi
7:00 AM23 °FClear.12 mph54%30.24 "Hg5 mi
6:00 AM25 °FClear.10 mph54%30.24 "Hg4 mi
5:00 AM27 °FClear.12 mph59%30.24 "Hg4 mi
4:00 AM28 °FClear.14 mph59%30.21 "Hg4 mi
3:00 AM30 °FHaze.8 mph64%30.21 "Hg3 mi
Weather by CustomWeather, © 2014

See weather overviewHow to use our weather pages